XNO922G LPFR-EGGD

Flight info

Callsign XNO922G
Flight time 2h 14m
Altitude 34000
Route ELVAR DCT BARDI DCT ZMR DCT NUBLO DCT RONSI DCT DELOG DCT NOVAN DCT NOZHU/N0432F290 DCT SHIRI DCT TOJAQ
Aircraft A321/M-SDE1E2E3FGHIRWY/LB1

Departure

Time 2026-05-05 15:06
Airport Faro - Gago Coutinho International Airport (LPFR)

Arrival

Time 2026-05-05 17:21
Airport Bristol Airport (EGGD)
Time Latitude Longitude Altitude Speed Heading
2026-05-05 14:38 37.01914 -7.96838 20 ft 0 kts 10°
2026-05-05 14:58 37.01912 -7.96838 20 ft 2 kts 10°
2026-05-05 14:58 37.01886 -7.96844 21 ft 4 kts 10°
2026-05-05 14:58 37.01861 -7.96850 21 ft 4 kts 17°
2026-05-05 14:59 37.01841 -7.96865 23 ft 4 kts 67°
2026-05-05 14:59 37.01838 -7.96886 21 ft 3 kts 98°
2026-05-05 15:01 37.01837 -7.96884 20 ft 0 kts 105°
2026-05-05 15:01 37.01833 -7.96883 20 ft 1 kts 141°
2026-05-05 15:02 37.01796 -7.96883 20 ft 10 kts 189°
2026-05-05 15:02 37.01713 -7.96900 20 ft 13 kts 180°
2026-05-05 15:02 37.01661 -7.96821 20 ft 13 kts 103°
2026-05-05 15:02 37.01645 -7.96708 20 ft 13 kts 99°
2026-05-05 15:03 37.01629 -7.96594 20 ft 13 kts 99°
2026-05-05 15:03 37.01613 -7.96478 22 ft 14 kts 101°
2026-05-05 15:03 37.01594 -7.96361 20 ft 14 kts 101°
2026-05-05 15:03 37.01577 -7.96241 20 ft 14 kts 99°
2026-05-05 15:04 37.01560 -7.96118 20 ft 14 kts 99°
2026-05-05 15:04 37.01544 -7.95994 20 ft 15 kts 96°
2026-05-05 15:04 37.01527 -7.95883 22 ft 8 kts 112°
2026-05-05 15:04 37.01496 -7.95841 20 ft 8 kts 151°
2026-05-05 15:05 37.01381 -7.95854 20 ft 10 kts 193°
2026-05-05 15:05 37.01349 -7.95914 20 ft 9 kts 271°
2026-05-05 15:05 37.01362 -7.95997 20 ft 13 kts 281°
2026-05-05 15:06 37.01420 -7.96405 21 ft 82 kts 280°
2026-05-05 15:06 37.01555 -7.97361 19 ft 139 kts 280°
2026-05-05 15:06 37.01749 -7.98702 315 ft 161 kts 279°
2026-05-05 15:06 37.01946 -8.00083 1011 ft 163 kts 281°
2026-05-05 15:07 37.02142 -8.01507 1645 ft 169 kts 284°
2026-05-05 15:07 37.02361 -8.02977 2045 ft 181 kts 284°
2026-05-05 15:07 37.02614 -8.04583 2402 ft 195 kts 281°
2026-05-05 15:07 37.02867 -8.06302 2736 ft 206 kts 278°
2026-05-05 15:08 37.03092 -8.08099 3099 ft 212 kts 277°
2026-05-05 15:08 37.03322 -8.09990 3343 ft 228 kts 277°
2026-05-05 15:08 37.03800 -8.11967 3436 ft 249 kts 301°
2026-05-05 15:08 37.05051 -8.13490 3793 ft 257 kts 331°
2026-05-05 15:09 37.06792 -8.13975 4351 ft 262 kts
2026-05-05 15:09 37.08573 -8.13512 5079 ft 262 kts 12°
2026-05-05 15:09 37.10288 -8.12762 5840 ft 261 kts 14°
2026-05-05 15:09 37.12000 -8.12018 6604 ft 258 kts 12°
2026-05-05 15:10 37.13726 -8.11366 7189 ft 262 kts
2026-05-05 15:10 37.15523 -8.10841 7719 ft 267 kts
2026-05-05 15:10 37.17337 -8.10425 8297 ft 270 kts
2026-05-05 15:10 37.19213 -8.10058 8860 ft 274 kts
2026-05-05 15:11 37.21117 -8.09701 9426 ft 278 kts
2026-05-05 15:11 37.22504 -8.09425 9829 ft 282 kts
2026-05-05 15:11 37.22997 -8.09323 9980 ft 282 kts
2026-05-05 15:11 37.24941 -8.08902 10525 ft 286 kts
2026-05-05 15:12 37.26908 -8.08463 11073 ft 289 kts
2026-05-05 15:12 37.28949 -8.08021 11267 ft 307 kts
2026-05-05 15:12 37.31128 -8.07569 11400 ft 326 kts
2026-05-05 15:12 37.33433 -8.07103 11530 ft 343 kts
2026-05-05 15:13 37.35831 -8.06625 11876 ft 352 kts
2026-05-05 15:13 37.38241 -8.06143 12383 ft 356 kts
2026-05-05 15:13 37.40711 -8.05649 12933 ft 359 kts
2026-05-05 15:13 37.43193 -8.05154 13498 ft 362 kts
2026-05-05 15:14 37.45697 -8.04657 14041 ft 365 kts
2026-05-05 15:14 37.48220 -8.04154 14543 ft 368 kts
2026-05-05 15:14 37.50721 -8.03656 15027 ft 371 kts
2026-05-05 15:14 37.53289 -8.03147 15510 ft 374 kts
2026-05-05 15:15 37.55902 -8.02630 15999 ft 378 kts
2026-05-05 15:15 37.58483 -8.02118 16485 ft 381 kts
2026-05-05 15:15 37.61126 -8.01651 16962 ft 384 kts
2026-05-05 15:15 37.63792 -8.01329 17455 ft 386 kts
2026-05-05 15:16 37.66485 -8.01100 17922 ft 389 kts
2026-05-05 15:16 37.69197 -8.00909 18390 ft 392 kts
2026-05-05 15:16 37.71935 -8.00716 18793 ft 396 kts
2026-05-05 15:16 37.74696 -8.00500 19212 ft 398 kts
2026-05-05 15:17 37.77436 -8.00263 19633 ft 401 kts
2026-05-05 15:17 37.80232 -8.00006 20053 ft 404 kts
2026-05-05 15:17 37.83044 -7.99741 20472 ft 406 kts
2026-05-05 15:17 37.85871 -7.99473 20884 ft 409 kts
2026-05-05 15:18 37.88721 -7.99206 21281 ft 411 kts
2026-05-05 15:18 37.91584 -7.98941 21669 ft 414 kts
2026-05-05 15:18 37.94463 -7.98673 22097 ft 416 kts
2026-05-05 15:18 37.97354 -7.98399 22526 ft 417 kts
2026-05-05 15:19 38.00265 -7.98119 22911 ft 420 kts
2026-05-05 15:19 38.03185 -7.97840 23280 ft 422 kts
2026-05-05 15:19 38.06120 -7.97563 23639 ft 424 kts
2026-05-05 15:19 38.09033 -7.97291 23934 ft 426 kts
2026-05-05 15:20 38.12002 -7.97016 24232 ft 429 kts 360°
2026-05-05 15:20 38.15008 -7.96738 24528 ft 431 kts 360°
2026-05-05 15:20 38.17975 -7.96461 24813 ft 433 kts 359°
2026-05-05 15:20 38.20988 -7.96176 25093 ft 435 kts 359°
2026-05-05 15:21 38.24016 -7.95892 25371 ft 438 kts 359°
2026-05-05 15:21 38.27067 -7.95605 25650 ft 440 kts 359°
2026-05-05 15:21 38.30129 -7.95316 25915 ft 442 kts 359°
2026-05-05 15:21 38.33202 -7.95028 26189 ft 444 kts 359°
2026-05-05 15:22 38.36291 -7.94738 26462 ft 446 kts 359°
2026-05-05 15:22 38.39397 -7.94446 26744 ft 448 kts 358°
2026-05-05 15:22 38.42517 -7.94150 27029 ft 450 kts 358°
2026-05-05 15:22 38.45642 -7.93851 27301 ft 452 kts 358°
2026-05-05 15:23 38.48784 -7.93552 27554 ft 454 kts 358°
2026-05-05 15:23 38.51942 -7.93251 27800 ft 456 kts 358°
2026-05-05 15:23 38.55112 -7.92948 28052 ft 458 kts 358°
2026-05-05 15:23 38.58294 -7.92647 28305 ft 459 kts 358°
2026-05-05 15:24 38.61487 -7.92239 28554 ft 466 kts
2026-05-05 15:24 38.64659 -7.91175 28842 ft 477 kts 14°
2026-05-05 15:24 38.67654 -7.89401 29135 ft 486 kts 25°
2026-05-05 15:24 38.70435 -7.86908 29500 ft 493 kts 36°
2026-05-05 15:25 38.72943 -7.83879 29823 ft 496 kts 39°
2026-05-05 15:25 38.75414 -7.80801 30132 ft 496 kts 39°
2026-05-05 15:25 38.77894 -7.77715 30412 ft 496 kts 39°
2026-05-05 15:25 38.80374 -7.74628 30702 ft 496 kts 39°
2026-05-05 15:26 38.82847 -7.71540 30983 ft 496 kts 39°
2026-05-05 15:26 38.85320 -7.68445 31269 ft 496 kts 39°
2026-05-05 15:26 38.87787 -7.65359 31576 ft 495 kts 39°
2026-05-05 15:26 38.90257 -7.62271 31887 ft 495 kts 39°
2026-05-05 15:27 38.92716 -7.59196 32181 ft 494 kts 39°
2026-05-05 15:27 38.95179 -7.56110 32447 ft 494 kts 39°
2026-05-05 15:27 38.97643 -7.53019 32674 ft 495 kts 39°
2026-05-05 15:27 39.00101 -7.49931 32934 ft 495 kts 39°
2026-05-05 15:28 39.02563 -7.46832 33185 ft 495 kts 39°
2026-05-05 15:28 39.04991 -7.43778 33434 ft 495 kts 38°
2026-05-05 15:28 39.07453 -7.40678 33683 ft 495 kts 38°
2026-05-05 15:28 39.09907 -7.37584 33919 ft 495 kts 38°
2026-05-05 15:29 39.12373 -7.34473 34037 ft 496 kts 39°
2026-05-05 15:29 39.17273 -7.28280 34012 ft 491 kts 39°
2026-05-05 15:30 39.22326 -7.22430 34013 ft 483 kts 28°
2026-05-05 15:30 39.28112 -7.18270 34011 ft 474 kts 20°
2026-05-05 15:31 39.33996 -7.14401 34011 ft 475 kts 20°
2026-05-05 15:31 39.39839 -7.10500 34040 ft 475 kts 21°
2026-05-05 15:32 39.45747 -7.06557 34024 ft 474 kts 21°
2026-05-05 15:32 39.51573 -7.02671 34028 ft 474 kts 21°
2026-05-05 15:33 39.57450 -6.98756 34017 ft 474 kts 21°
2026-05-05 15:33 39.63321 -6.94838 34029 ft 474 kts 21°
2026-05-05 15:34 39.69177 -6.90917 34012 ft 474 kts 21°
2026-05-05 15:34 39.75032 -6.86995 34009 ft 474 kts 21°
2026-05-05 15:35 39.80890 -6.83063 34028 ft 473 kts 20°
2026-05-05 15:35 39.86719 -6.79130 33992 ft 469 kts 21°
2026-05-05 15:36 39.92467 -6.75249 33987 ft 467 kts 21°
2026-05-05 15:36 39.98238 -6.71349 33994 ft 468 kts 21°
2026-05-05 15:37 40.04017 -6.67433 33995 ft 468 kts 21°
2026-05-05 15:37 40.09799 -6.63511 34024 ft 467 kts 21°
2026-05-05 15:38 40.15564 -6.59589 34014 ft 466 kts 21°
2026-05-05 15:38 40.21304 -6.55677 34012 ft 465 kts 21°
2026-05-05 15:39 40.27038 -6.51768 34008 ft 464 kts 21°
2026-05-05 15:39 40.32754 -6.47853 33979 ft 459 kts 20°
2026-05-05 15:40 40.38403 -6.43981 33994 ft 458 kts 20°
2026-05-05 15:40 40.44049 -6.40107 33995 ft 458 kts 20°
2026-05-05 15:41 40.49668 -6.36244 34001 ft 459 kts 20°
2026-05-05 15:41 40.55324 -6.32337 34005 ft 459 kts 20°
2026-05-05 15:42 40.60981 -6.28428 34006 ft 459 kts 20°
2026-05-05 15:42 40.66655 -6.24525 34009 ft 459 kts 20°
2026-05-05 15:43 40.72311 -6.20621 34010 ft 459 kts 20°
2026-05-05 15:43 40.77965 -6.16708 34000 ft 457 kts 20°
2026-05-05 15:44 40.83588 -6.12799 33999 ft 457 kts 20°
2026-05-05 15:44 40.88259 -6.09543 34003 ft 457 kts 20°
2026-05-05 15:45 40.93880 -6.05626 34018 ft 457 kts 19°
2026-05-05 15:45 40.99503 -6.01718 34031 ft 457 kts 19°
2026-05-05 15:46 41.05134 -5.97781 34020 ft 457 kts 19°
2026-05-05 15:46 41.10754 -5.93833 34015 ft 457 kts 19°
2026-05-05 15:47 41.16373 -5.89889 34006 ft 457 kts 19°
2026-05-05 15:47 41.21995 -5.85942 33993 ft 457 kts 20°
2026-05-05 15:48 41.27598 -5.81988 33986 ft 455 kts 20°
2026-05-05 15:48 41.33170 -5.78058 33987 ft 456 kts 20°
2026-05-05 15:49 41.38782 -5.74102 33988 ft 456 kts 20°
2026-05-05 15:49 41.44394 -5.70120 34025 ft 458 kts 21°
2026-05-05 15:50 41.50023 -5.66112 33987 ft 459 kts 21°
2026-05-05 15:50 41.55730 -5.62438 33999 ft 455 kts 16°
2026-05-05 15:51 41.61577 -5.59159 33995 ft 455 kts 16°
2026-05-05 15:51 41.67412 -5.55885 34022 ft 456 kts 17°
2026-05-05 15:52 41.73250 -5.52571 34014 ft 457 kts 17°
2026-05-05 15:52 41.79121 -5.49241 34008 ft 457 kts 17°
2026-05-05 15:53 41.84975 -5.45920 33996 ft 457 kts 17°
2026-05-05 15:53 41.90830 -5.42592 34014 ft 456 kts 17°
2026-05-05 15:54 41.96669 -5.39264 34009 ft 456 kts 17°
2026-05-05 15:54 42.02518 -5.35925 34010 ft 456 kts 17°
2026-05-05 15:55 42.08358 -5.32592 34045 ft 456 kts 17°
2026-05-05 15:55 42.14154 -5.29272 34003 ft 455 kts 18°
2026-05-05 15:56 42.19983 -5.25921 34001 ft 456 kts 18°
2026-05-05 15:56 42.25825 -5.22556 34006 ft 456 kts 18°
2026-05-05 15:57 42.31659 -5.19186 34020 ft 456 kts 18°
2026-05-05 15:57 42.37497 -5.15808 34014 ft 456 kts 18°
2026-05-05 15:58 42.43337 -5.12436 34012 ft 456 kts 18°
2026-05-05 15:58 42.49182 -5.09058 34010 ft 456 kts 18°
2026-05-05 15:59 42.55015 -5.05667 34025 ft 456 kts 18°
2026-05-05 15:59 42.60804 -5.02291 34018 ft 456 kts 18°
2026-05-05 16:00 42.66637 -4.98873 34014 ft 456 kts 18°
2026-05-05 16:00 42.72460 -4.95465 34015 ft 456 kts 18°
2026-05-05 16:01 42.78288 -4.92059 34025 ft 456 kts 19°
2026-05-05 16:01 42.84118 -4.88641 34014 ft 456 kts 19°
2026-05-05 16:02 42.89946 -4.85211 34013 ft 457 kts 19°
2026-05-05 16:02 42.95778 -4.81763 34027 ft 457 kts 19°
2026-05-05 16:03 43.01612 -4.78310 34026 ft 457 kts 19°
2026-05-05 16:03 43.07450 -4.74863 34024 ft 457 kts 19°
2026-05-05 16:04 43.13286 -4.71402 34040 ft 457 kts 19°
2026-05-05 16:04 43.19117 -4.67922 34038 ft 457 kts 20°
2026-05-05 16:05 43.24954 -4.64441 34035 ft 458 kts 20°
2026-05-05 16:05 43.30767 -4.60974 34043 ft 458 kts 20°
2026-05-05 16:06 43.36612 -4.57471 34055 ft 458 kts 20°
2026-05-05 16:06 43.42452 -4.53965 34038 ft 458 kts 20°
2026-05-05 16:07 43.48302 -4.50445 34033 ft 459 kts 20°
2026-05-05 16:07 43.54152 -4.46925 34039 ft 459 kts 20°
2026-05-05 16:08 43.60008 -4.43393 34038 ft 459 kts 21°
2026-05-05 16:08 43.65865 -4.39851 34036 ft 459 kts 21°
2026-05-05 16:09 43.71721 -4.36307 34030 ft 459 kts 21°
2026-05-05 16:09 43.77573 -4.32753 34035 ft 459 kts 21°
2026-05-05 16:10 43.83416 -4.29190 34025 ft 459 kts 21°
2026-05-05 16:10 43.89258 -4.25628 34018 ft 459 kts 21°
2026-05-05 16:11 43.95063 -4.22078 34018 ft 459 kts 21°
2026-05-05 16:12 44.06728 -4.14913 34025 ft 458 kts 22°
2026-05-05 16:13 44.21281 -4.05956 34021 ft 456 kts 22°
2026-05-05 16:13 44.27082 -4.02355 34014 ft 456 kts 22°
2026-05-05 16:14 44.39117 -3.97888 34011 ft 450 kts
2026-05-05 16:15 44.51569 -3.96141 34005 ft 449 kts
2026-05-05 16:16 44.64000 -3.94385 34004 ft 448 kts
2026-05-05 16:17 44.73299 -3.93079 34003 ft 447 kts
2026-05-05 16:18 44.82589 -3.91754 33998 ft 447 kts
2026-05-05 16:19 44.91866 -3.90427 33994 ft 447 kts
2026-05-05 16:19 45.01144 -3.89103 33988 ft 447 kts
2026-05-05 16:20 45.13524 -3.87322 33988 ft 447 kts
2026-05-05 16:22 45.28946 -3.85106 33977 ft 447 kts
2026-05-05 16:23 45.41339 -3.83321 33975 ft 448 kts
2026-05-05 16:23 45.50640 -3.81953 33979 ft 448 kts
2026-05-05 16:24 45.56868 -3.81045 33971 ft 448 kts
2026-05-05 16:25 45.66186 -3.79696 33972 ft 449 kts
2026-05-05 16:25 45.75481 -3.78338 33971 ft 449 kts
2026-05-05 16:26 45.87938 -3.76484 33965 ft 450 kts
2026-05-05 16:27 45.94177 -3.75573 33966 ft 450 kts
2026-05-05 16:27 46.00416 -3.74660 33971 ft 450 kts
2026-05-05 16:28 46.06645 -3.73732 33968 ft 450 kts
2026-05-05 16:28 46.11829 -3.72950 33968 ft 450 kts
2026-05-05 16:29 46.18063 -3.72009 33973 ft 450 kts
2026-05-05 16:29 46.24293 -3.71088 33964 ft 450 kts
2026-05-05 16:30 46.30518 -3.70166 33969 ft 450 kts
2026-05-05 16:30 46.36784 -3.69991 33966 ft 450 kts
2026-05-05 16:31 46.43011 -3.70110 33970 ft 450 kts
2026-05-05 16:31 46.49274 -3.70223 33966 ft 450 kts
2026-05-05 16:32 46.55536 -3.70338 33958 ft 450 kts
2026-05-05 16:32 46.61794 -3.70453 33960 ft 450 kts
2026-05-05 16:33 46.68055 -3.70562 33964 ft 449 kts
2026-05-05 16:33 46.74309 -3.70684 33964 ft 449 kts
2026-05-05 16:34 46.80562 -3.70806 33961 ft 449 kts
2026-05-05 16:34 46.86810 -3.70923 33961 ft 449 kts
2026-05-05 16:35 46.93032 -3.71039 33962 ft 449 kts
2026-05-05 16:35 46.99280 -3.71150 33966 ft 449 kts
2026-05-05 16:36 47.05525 -3.71272 33963 ft 448 kts
2026-05-05 16:36 47.11766 -3.71392 33968 ft 448 kts
2026-05-05 16:37 47.18000 -3.71502 33962 ft 448 kts
2026-05-05 16:37 47.24243 -3.71614 33959 ft 449 kts
2026-05-05 16:38 47.30493 -3.71735 33958 ft 450 kts
2026-05-05 16:38 47.36756 -3.71857 33956 ft 450 kts
2026-05-05 16:39 47.43034 -3.71975 33965 ft 451 kts
2026-05-05 16:39 47.49267 -3.72099 33970 ft 450 kts
2026-05-05 16:40 47.55536 -3.72220 33957 ft 450 kts
2026-05-05 16:40 47.61806 -3.72342 33977 ft 450 kts
2026-05-05 16:41 47.68073 -3.72463 33980 ft 450 kts
2026-05-05 16:41 47.74333 -3.72577 33978 ft 450 kts
2026-05-05 16:42 47.80609 -3.72698 33991 ft 450 kts
2026-05-05 16:42 47.86878 -3.72822 33989 ft 450 kts
2026-05-05 16:43 47.93141 -3.72938 33992 ft 450 kts
2026-05-05 16:43 47.99396 -3.73057 33983 ft 449 kts
2026-05-05 16:44 48.05644 -3.73179 33993 ft 449 kts
2026-05-05 16:44 48.11889 -3.73301 33997 ft 449 kts
2026-05-05 16:45 48.18128 -3.73421 33992 ft 448 kts
2026-05-05 16:45 48.24351 -3.73539 33997 ft 447 kts
2026-05-05 16:46 48.30564 -3.73656 34002 ft 446 kts
2026-05-05 16:46 48.36732 -3.73780 34005 ft 446 kts
2026-05-05 16:47 48.42929 -3.73914 34001 ft 445 kts 360°
2026-05-05 16:47 48.49121 -3.74035 34002 ft 445 kts
2026-05-05 16:48 48.55307 -3.74146 34000 ft 444 kts
2026-05-05 16:48 48.61485 -3.74269 33994 ft 444 kts 360°
2026-05-05 16:49 48.67659 -3.74396 34004 ft 443 kts 360°
2026-05-05 16:49 48.73820 -3.74518 34005 ft 443 kts 360°
2026-05-05 16:50 48.79969 -3.74641 34000 ft 441 kts 360°
2026-05-05 16:50 48.85285 -3.74749 34001 ft 441 kts 360°
2026-05-05 16:51 48.90760 -3.74867 33996 ft 440 kts 360°
2026-05-05 16:51 48.96884 -3.74990 33996 ft 440 kts 360°
2026-05-05 16:52 49.03007 -3.75096 33994 ft 440 kts 360°
2026-05-05 16:52 49.09083 -3.75193 34009 ft 439 kts 360°
2026-05-05 16:53 49.15180 -3.75328 34007 ft 438 kts 360°
2026-05-05 16:53 49.21271 -3.75469 34007 ft 437 kts 360°
2026-05-05 16:54 49.27348 -3.75598 33991 ft 437 kts 360°
2026-05-05 16:54 49.33439 -3.75706 33978 ft 438 kts 360°
2026-05-05 16:55 49.39549 -3.75821 33977 ft 439 kts 360°
2026-05-05 16:55 49.45667 -3.75956 33981 ft 440 kts 360°
2026-05-05 16:56 49.51794 -3.76088 33979 ft 440 kts 359°
2026-05-05 16:56 49.57921 -3.76209 33986 ft 440 kts 359°
2026-05-05 16:57 49.64051 -3.76327 33996 ft 440 kts 359°
2026-05-05 16:57 49.70108 -3.76381 33620 ft 434 kts
2026-05-05 16:58 49.73120 -3.76030 33344 ft 435 kts
2026-05-05 16:58 49.76139 -3.75672 33069 ft 435 kts
2026-05-05 16:58 49.79153 -3.75316 32795 ft 434 kts
2026-05-05 16:58 49.82165 -3.74962 32525 ft 434 kts
2026-05-05 16:59 49.85175 -3.74611 32258 ft 433 kts
2026-05-05 16:59 49.88171 -3.74262 31986 ft 430 kts
2026-05-05 16:59 49.91144 -3.73912 31514 ft 427 kts
2026-05-05 16:59 49.94105 -3.73558 31035 ft 424 kts
2026-05-05 17:00 49.97036 -3.73210 30552 ft 422 kts
2026-05-05 17:00 49.99955 -3.72865 30082 ft 419 kts
2026-05-05 17:00 50.02857 -3.72518 29556 ft 417 kts
2026-05-05 17:00 50.05736 -3.72175 29090 ft 412 kts
2026-05-05 17:01 50.08584 -3.71837 28631 ft 409 kts
2026-05-05 17:01 50.11406 -3.71501 28178 ft 405 kts
2026-05-05 17:01 50.14208 -3.71166 27743 ft 402 kts
2026-05-05 17:01 50.16979 -3.70830 27306 ft 399 kts
2026-05-05 17:02 50.19701 -3.70500 26882 ft 396 kts
2026-05-05 17:02 50.22439 -3.70172 26467 ft 393 kts
2026-05-05 17:02 50.25196 -3.69841 26041 ft 391 kts
2026-05-05 17:02 50.27866 -3.69519 25643 ft 389 kts
2026-05-05 17:03 50.30595 -3.69189 25227 ft 387 kts
2026-05-05 17:03 50.33240 -3.68869 24821 ft 385 kts
2026-05-05 17:03 50.35935 -3.68543 24394 ft 383 kts
2026-05-05 17:03 50.38552 -3.68226 23997 ft 381 kts
2026-05-05 17:04 50.41193 -3.67906 23581 ft 380 kts
2026-05-05 17:04 50.43854 -3.67519 23110 ft 378 kts
2026-05-05 17:04 50.46422 -3.67055 22688 ft 375 kts
2026-05-05 17:04 50.49001 -3.66537 22261 ft 372 kts
2026-05-05 17:05 50.51556 -3.66009 21826 ft 368 kts
2026-05-05 17:05 50.54088 -3.65489 21398 ft 365 kts
2026-05-05 17:05 50.56602 -3.64983 20973 ft 362 kts
2026-05-05 17:05 50.59092 -3.64497 20540 ft 359 kts
2026-05-05 17:06 50.61565 -3.64027 20111 ft 356 kts
2026-05-05 17:06 50.64019 -3.63569 19685 ft 354 kts
2026-05-05 17:06 50.66455 -3.63115 19262 ft 352 kts
2026-05-05 17:06 50.68846 -3.62666 18845 ft 349 kts
2026-05-05 17:07 50.71252 -3.62207 18422 ft 347 kts
2026-05-05 17:07 50.73648 -3.61744 17966 ft 345 kts
2026-05-05 17:07 50.76018 -3.61285 17532 ft 342 kts
2026-05-05 17:07 50.78365 -3.60829 17125 ft 338 kts
2026-05-05 17:08 50.80689 -3.60380 16712 ft 334 kts
2026-05-05 17:08 50.82988 -3.59937 16314 ft 331 kts
2026-05-05 17:08 50.85265 -3.59498 15906 ft 328 kts
2026-05-05 17:08 50.87522 -3.59065 15507 ft 326 kts
2026-05-05 17:09 50.89772 -3.58632 15105 ft 324 kts
2026-05-05 17:09 50.91969 -3.58068 14898 ft 317 kts 14°
2026-05-05 17:09 50.93990 -3.56749 14649 ft 312 kts 29°
2026-05-05 17:09 50.95722 -3.54687 14341 ft 313 kts 44°
2026-05-05 17:10 50.97230 -3.52190 13978 ft 311 kts 45°
2026-05-05 17:10 50.98702 -3.49737 13790 ft 304 kts 45°
2026-05-05 17:10 51.00151 -3.47325 13276 ft 301 kts 45°
2026-05-05 17:10 51.01585 -3.44938 12798 ft 296 kts 45°
2026-05-05 17:11 51.03000 -3.42589 12332 ft 291 kts 44°
2026-05-05 17:11 51.03924 -3.41060 12072 ft 288 kts 43°
2026-05-05 17:11 51.06096 -3.38624 11553 ft 285 kts 22°
2026-05-05 17:11 51.07949 -3.37710 11236 ft 281 kts
2026-05-05 17:12 51.09885 -3.37349 10853 ft 280 kts
2026-05-05 17:12 51.11818 -3.37019 10555 ft 277 kts
2026-05-05 17:12 51.13727 -3.36695 10270 ft 274 kts
2026-05-05 17:12 51.15606 -3.36347 9814 ft 271 kts 10°
2026-05-05 17:13 51.17396 -3.35366 9336 ft 268 kts 27°
2026-05-05 17:13 51.18878 -3.33650 8966 ft 267 kts 43°
2026-05-05 17:13 51.20051 -3.31356 8610 ft 269 kts 51°
2026-05-05 17:13 51.21177 -3.28968 8248 ft 269 kts 51°
2026-05-05 17:14 51.22305 -3.26586 7886 ft 268 kts 51°
2026-05-05 17:14 51.23428 -3.24219 7532 ft 267 kts 51°
2026-05-05 17:14 51.24547 -3.21850 7168 ft 268 kts 50°
2026-05-05 17:14 51.25665 -3.19482 6782 ft 264 kts 51°
2026-05-05 17:15 51.26759 -3.17160 6421 ft 259 kts 51°
2026-05-05 17:15 51.27834 -3.14878 6034 ft 255 kts 50°
2026-05-05 17:15 51.28888 -3.12643 5638 ft 249 kts 50°
2026-05-05 17:15 51.29920 -3.10457 5266 ft 243 kts 51°
2026-05-05 17:16 51.30922 -3.08331 4907 ft 237 kts 51°
2026-05-05 17:16 51.31912 -3.06228 4551 ft 236 kts 51°
2026-05-05 17:16 51.32884 -3.04155 4196 ft 236 kts 51°
2026-05-05 17:16 51.33858 -3.02071 3865 ft 229 kts 51°
2026-05-05 17:17 51.34786 -3.00083 3491 ft 217 kts 51°
2026-05-05 17:17 51.35675 -2.98183 3129 ft 212 kts 51°
2026-05-05 17:17 51.36269 -2.96918 2901 ft 208 kts 51°
2026-05-05 17:17 51.37242 -2.94466 2522 ft 187 kts 69°
2026-05-05 17:18 51.37413 -2.93165 2480 ft 174 kts 82°
2026-05-05 17:18 51.37488 -2.91275 2485 ft 167 kts 83°
2026-05-05 17:18 51.37565 -2.89445 2507 ft 164 kts 83°
2026-05-05 17:18 51.37640 -2.87626 2384 ft 163 kts 83°
2026-05-05 17:19 51.37713 -2.85821 2203 ft 162 kts 81°
2026-05-05 17:19 51.37784 -2.84033 2010 ft 157 kts 82°
2026-05-05 17:19 51.37853 -2.82323 1816 ft 151 kts 82°
2026-05-05 17:19 51.37923 -2.80661 1590 ft 148 kts 82°
2026-05-05 17:20 51.37989 -2.79025 1345 ft 147 kts 82°
2026-05-05 17:20 51.38052 -2.77379 1162 ft 148 kts 81°
2026-05-05 17:20 51.38116 -2.75764 992 ft 147 kts 82°
2026-05-05 17:20 51.38184 -2.74135 753 ft 145 kts 83°
2026-05-05 17:21 51.38244 -2.72532 633 ft 135 kts 84°
2026-05-05 17:21 51.38290 -2.71341 604 ft 65 kts 86°
2026-05-05 17:21 51.38307 -2.70913 617 ft 23 kts 86°
2026-05-05 17:22 51.38406 -2.70727 621 ft 8 kts 19°
2026-05-05 17:22 51.38454 -2.70718 611 ft 6 kts 330°
2026-05-05 17:22 51.38469 -2.70785 625 ft 7 kts 275°
2026-05-05 17:22 51.38469 -2.70852 624 ft 6 kts 268°
2026-05-05 17:23 51.38465 -2.70948 614 ft 11 kts 266°
2026-05-05 17:23 51.38461 -2.71073 615 ft 8 kts 266°
2026-05-05 17:23 51.38476 -2.71131 628 ft 7 kts 335°
2026-05-05 17:23 51.38512 -2.71140 611 ft 3 kts 355°
2026-05-05 17:24 51.38517 -2.71141 611 ft 0 kts 355°